Bergman, AR

1:19 PM CDT on August 29, 2016 (GMT -0500)
Boone County

Weather History for KHRO - January, 2012

Change the Weather History Date:

Saturday, January 21, 2012

  Actual Average Record
Temperature  
Mean Temperature 29 °F 37 °F  
Max Temperature 35 °F 47 °F 77 °F (1909)
Min Temperature 22 °F 26 °F -3 °F (1954)
Degree Days  
Heating Degree Days 36 28  
Month to date heating degree days 508 608  
Since 1 July heating degree days 1920 2207  
Cooling Degree Days 0 0  
Month to date cooling degree days 0 0  
Year to date cooling degree days 0 0  
Moisture  
Dew Point 25 °F    
Average Humidity 82    
Maximum Humidity 100    
Minimum Humidity 64    
Precipitation  
Precipitation 0.00 in 0.08 in 3.05 in (1904)
Month to date precipitation 0.59 1.76  
Year to date precipitation 0.59 1.76  
Snow  
Snow 0.00 in 0.20 in 11.00 in (1926)
Month to date snowfall 0.2 2.4  
Since 1 July snowfall 1.1 4.2  
Snow Depth 0.00 in    
Sea Level Pressure  
Sea Level Pressure 30.04 in    
Wind  
Wind Speed 9 mph (NNE)    
Max Wind Speed 20 mph    
Max Gust Speed 25 mph    
Visibility 7 miles    
Events      
T = Trace of Precipitation, MM = Missing Value Source: NWS Daily Summary

Daily Weather History Graph

Daily Weather History Graph

Search for Another Location

Airport or City:

Trip Planner

Search our weather history database for the weather conditions in past years. The results will help you decide how hot, cold, wet, or windy it might be!

Date:

Astronomy

Jan. 21, 2012 Rise Set
Actual Time 7:21 AM CST 5:27 PM CST
Civil Twilight 6:53 AM CST 5:54 PM CST
Nautical Twilight 6:21 AM CST 6:26 PM CST
Astronomical Twilight 5:51 AM CST 6:56 PM CST
Moon 5:51 AM CST (1/21) 4:04 PM CST (1/21)
Length of Visible Light 11h 01m
Length of Day
10h 05m
Waning Crescent, 3% of the Moon is Illuminated
Jan 21
Waning Crescent
Jan 23
New
Jan 30
First Quarter
Feb 7
Full
Feb 14
Last Quarter

Hourly Weather History & Observations

Time (CST) Temp. Windchill Dew Point Humidity Pressure Visibility Wind Dir Wind Speed Gust Speed Precip Events Conditions
12:26 AM 32.0 °F 23.0 °F 32.0 °F 100% 29.97 in 1.0 mi NW 11.5 mph - N/A   Mist
12:42 AM 30.2 °F 20.8 °F 30.2 °F 100% 29.98 in 3.0 mi NW 11.5 mph - N/A   Overcast
12:53 AM 30.9 °F 21.2 °F 30.9 °F 100% 30.01 in 4.0 mi NW 12.7 mph 20.7 mph N/A   Overcast
1:23 AM 30.2 °F 23.4 °F 30.2 °F 100% 29.98 in 2.5 mi NW 6.9 mph - N/A   Overcast
1:53 AM 30.0 °F 21.1 °F 28.9 °F 96% 30.01 in 2.5 mi NW 10.4 mph - N/A   Overcast
2:04 AM 28.4 °F 19.1 °F 28.4 °F 100% 30.00 in 3.0 mi NW 10.4 mph - N/A   Overcast
2:24 AM 28.4 °F 18.0 °F 28.4 °F 100% 30.01 in 3.0 mi NW 12.7 mph 21.9 mph N/A   Overcast
2:53 AM 28.0 °F 18.6 °F 28.0 °F 100% 30.04 in 4.0 mi NW 10.4 mph - N/A   Overcast
3:36 AM 26.6 °F 15.2 °F 24.8 °F 93% 30.02 in 6.0 mi NW 13.8 mph 18.4 mph N/A   Overcast
3:53 AM 27.0 °F 17.3 °F 25.0 °F 92% 30.06 in 5.0 mi NW 10.4 mph - N/A   Overcast
4:53 AM 25.0 °F 16.3 °F 21.9 °F 88% 30.05 in 7.0 mi North 8.1 mph - N/A   Overcast
5:40 AM 24.8 °F 17.9 °F 21.2 °F 86% 30.03 in 8.0 mi North 5.8 mph - N/A   Overcast
5:53 AM 24.1 °F 15.2 °F 19.9 °F 84% 30.07 in 8.0 mi NNW 8.1 mph - N/A   Overcast
6:53 AM 21.2 °F 11.7 °F 19.4 °F 93% 30.08 in 8.0 mi NNW 8.1 mph - N/A   Overcast
7:53 AM 21.9 °F 14.5 °F 18.0 °F 85% 30.13 in 7.0 mi North 5.8 mph - N/A   Overcast
8:53 AM 23.0 °F 15.8 °F 19.0 °F 85% 30.16 in 8.0 mi NE 5.8 mph - N/A   Overcast
9:53 AM 23.0 °F 15.8 °F 19.9 °F 88% 30.17 in 7.0 mi North 5.8 mph - N/A   Overcast
10:53 AM 26.1 °F 20.5 °F 21.0 °F 81% 30.15 in 7.0 mi NE 4.6 mph - N/A   Overcast
11:53 AM 28.0 °F 24.2 °F 21.9 °F 78% 30.13 in 8.0 mi East 3.5 mph - N/A   Overcast
12:53 PM 28.9 °F 25.2 °F 21.9 °F 75% 30.10 in 9.0 mi ESE 3.5 mph - N/A   Mostly Cloudy
1:34 PM 30.2 °F 25.4 °F 23.0 °F 75% 30.06 in 8.0 mi Variable 4.6 mph - N/A   Scattered Clouds
1:53 PM 30.9 °F - 23.0 °F 72% 30.09 in 8.0 mi Calm Calm - N/A   Partly Cloudy
2:53 PM 33.1 °F 30.0 °F 23.0 °F 66% 30.06 in 9.0 mi SE 3.5 mph - N/A   Clear
3:53 PM 34.0 °F 25.5 °F 25.0 °F 70% 30.04 in 9.0 mi SE 11.5 mph - N/A   Clear
4:53 PM 34.0 °F 28.0 °F 25.0 °F 70% 30.02 in 9.0 mi SE 6.9 mph - N/A   Clear
5:53 PM 32.0 °F 24.8 °F 24.1 °F 73% 30.02 in 10.0 mi ESE 8.1 mph - N/A   Clear
6:53 PM 30.9 °F 22.2 °F 24.1 °F 76% 30.01 in 9.0 mi ESE 10.4 mph - N/A   Clear
7:53 PM 30.0 °F 21.1 °F 24.1 °F 79% 30.01 in 10.0 mi SE 10.4 mph - N/A   Clear
8:53 PM 30.0 °F 19.1 °F 24.1 °F 79% 29.99 in 10.0 mi SE 15.0 mph - N/A   Clear
9:53 PM 30.0 °F 17.9 °F 25.0 °F 82% 29.98 in 10.0 mi ESE 18.4 mph 25.3 mph N/A   Clear
10:53 PM 30.2 °F 18.9 °F 26.6 °F 86% 29.91 in 9.0 mi SE 16.1 mph - N/A   Mostly Cloudy
11:53 PM 30.0 °F 18.3 °F 26.1 °F 85% 29.93 in 8.0 mi ESE 17.3 mph - N/A   Overcast